Location: K�ln
(50.9455°N, 6.9544°E)
Time: 19:41:34
(UTC+01:00)

ISS - Pass Details

Date: 13 November 2017
Orbit: 402 x 407 km, 51.6° (Epoch: 22 November)

Event Time Altitude Azimuth Distance (km) Brightness Sun altitude
Exits shadow 05:02:32 28° 102° (ESE) 797 -1.8 -25.5°
Drops below altitude 10° 05:04:12 10° 102° (ESE) 1,456 0.0 -25.2°
Sets 05:06:17 0° 102° (ESE) 2,314 1.3 -24.9°
